Flag for Mexico Weather past 2 weeks in Playa del Carmen, Quintana Roo, Mexico

Now
72 °F

Mostly cloudy.


Feels Like: 65 °F
Forecast: 76 / 84 °F
Wind: 7 mph from Southeast

Location: Cozumel Civ / Mil

Current Time: Dec 19, 2014 at 10:28:48 PM

Latest Report: Dec 19, 2014 at 9:49 PM


Visibility: 7 mi

Pressure: 29.97 "Hg

Humidity: 100%

Dew point: 72 °F

Location of Playa del CarmenLocation

Historic Weather in Playa del Carmen — Graph

°F

Playa del Carmen temperature yesterday

Maximum temperature yesterday: 79 °F (at 2:40 PM)
Minimum temperature yesterday: 59 °F (at 12:41 AM)
Average temperature yesterday: 70 °F

Past Weeks' High & Low Weather Summary

 TemperatureHumidityPressure
High81 °F (Dec 10, 2:48 PM)100% (Dec 4, 10:45 PM)30.23 "Hg (Dec 4, 10:45 PM)
Low52 °F (Dec 15, 4:53 AM)51% (Dec 10, 2:48 PM)29.89 "Hg (Dec 10, 8:49 AM)
Average70 °F83%30.07 "Hg
* Reported Dec 4 8:55 PM — Dec 19 8:45 PM, Playa del Carmen, Weather by CustomWeather, © 2014

Note: Actual official high and low records may vary slightly from our data, if they occured in-between our weather recording intervals... More about our weather records

Advertising

Playa del Carmen weather history for previous 24 hours

 ConditionsComfort  
Time TempWeatherWind HumidityBarometerVisibility
8:45 PM
Dec 19
72 °FLight rain. Mostly cloudy.No wind100%29.97 "Hg5 mi
7:49 PM72 °FRain. Overcast.9 mph100%29.95 "Hg4 mi
6:47 PM72 °FLight rain. Overcast.8 mph100%29.93 "Hg4 mi
5:44 PM73 °FLight rain. Mostly cloudy.9 mph100%29.90 "Hg5 mi
4:55 PM75 °FCloudy.6 mph94%29.91 "Hg6 mi
3:42 PM75 °FCloudy.14 mph94%29.91 "Hg6 mi
2:49 PM75 °FMore clouds than sun.8 mph94%29.93 "Hg6 mi
1:41 PM73 °FMore clouds than sun.5 mph100%29.93 "Hg6 mi
12:42 PM75 °FMostly cloudy.9 mph94%29.94 "Hg7 mi
11:42 AM75 °FMore clouds than sun.7 mph94%29.97 "Hg7 mi
10:44 AM72 °FMostly cloudy.9 mph100%30.00 "Hg7 mi
9:42 AM75 °FMostly cloudy.8 mph83%30.02 "Hg7 mi
8:40 AM73 °FBroken clouds.9 mph89%30.04 "Hg8 mi
7:42 AM72 °FBroken clouds.9 mph94%30.01 "Hg8 mi
6:45 AM68 °FPartly sunny.7 mph100%30.00 "Hg7 mi
5:48 AM68 °FLight rain. Mostly cloudy.5 mph100%29.98 "Hg6 mi
4:45 AM70 °FLight rain. Mostly cloudy.6 mph100%29.99 "Hg6 mi
3:45 AM68 °FMostly cloudy.8 mph100%29.97 "Hg7 mi
2:44 AM70 °FMostly cloudy.6 mph100%30.01 "Hg7 mi
1:40 AM70 °FPartly cloudy.5 mph94%29.99 "Hg7 mi
12:42 AM68 °FPartly cloudy.No wind100%30.02 "Hg7 mi
11:49 PM
Dec 18
68 °FPartly cloudy.5 mph100%30.01 "Hg7 mi
10:41 PM72 °FPartly cloudy.8 mph88%30.03 "Hg7 mi
Weather by CustomWeather, © 2014

See weather overviewHow to use our weather pages